Вернуться в каталог

FENGYUN 1C DEB

АктивенSSO
NORAD 30363·DEBRIS·🇨🇳 China

Запущен May 10, 1999 с Taiyuan Satellite Launch Center

Loading…

Ближайшие Пролёты (ближайшие 24 часа)

TLE

СвежийSource: Space-Track

Эпоха: Sep 14, 2026, 11:51 UTC

1 30363U 99025ACA 26257.49393066  .00001488  00000-0  72385-3 0  9991
2 30363  99.0171 337.9079 0075944 334.6962  25.0501 14.18304991  7149

Отслеживайте FENGYUN 1C DEB в реальном времени с AllMySat

Download on the App Store